Time,TemperatureF,DewpointF,PressureIn,WindDirection,WindDirectionDegrees,WindSpeedMPH,WindSpeedGustMPH,Humidity,HourlyPrecipIn,Conditions,Clouds,dailyrainin,SolarRadiationWatts/m^2,SoftwareType,DateUTC
2013-01-13 00:02:00,7.0,4.0,-100.00,NNW,339,2.0,5.0,87,0.00,,,0.07,0.000000,,2013-01-13 07:02:00,
2013-01-13 00:12:00,7.0,4.0,-100.00,NNW,339,2.0,5.0,87,0.00,,,0.07,0.000000,,2013-01-13 07:12:00,
2013-01-13 00:33:00,8.0,5.0,-100.00,North,359,2.0,4.0,86,0.00,,,0.07,0.000000,,2013-01-13 07:33:00,
2013-01-13 00:42:00,8.0,5.0,-100.00,North,359,2.0,4.0,86,0.00,,,0.07,0.000000,,2013-01-13 07:42:00,
2013-01-13 00:52:00,8.0,5.0,-100.00,North,359,2.0,4.0,86,0.00,,,0.07,0.000000,,2013-01-13 07:52:00,
2013-01-13 01:02:00,8.0,5.0,-100.00,North,359,2.0,4.0,86,0.00,,,0.07,0.000000,,2013-01-13 08:02:00,
2013-01-13 01:11:00,8.0,5.0,-100.00,North,359,2.0,4.0,86,0.00,,,0.07,0.000000,,2013-01-13 08:11:00,
2013-01-13 01:42:00,8.0,5.0,-100.00,North,2,2.0,4.0,86,0.00,,,0.07,0.000000,,2013-01-13 08:42:00,
2013-01-13 01:52:00,8.0,5.0,-100.00,North,2,2.0,4.0,86,0.00,,,0.07,0.000000,,2013-01-13 08:52:00,
2013-01-13 02:02:00,8.0,5.0,-100.00,North,2,2.0,4.0,86,0.00,,,0.07,0.000000,,2013-01-13 09:02:00,
2013-01-13 02:11:00,8.0,5.0,-100.00,North,2,2.0,4.0,86,0.00,,,0.07,0.000000,,2013-01-13 09:11:00,
2013-01-13 02:32:00,9.0,6.0,-100.00,NNW,344,1.0,4.0,86,0.00,,,0.07,0.000000,,2013-01-13 09:32:00,
2013-01-13 02:42:00,9.0,6.0,-100.00,NNW,344,1.0,4.0,86,0.00,,,0.07,0.000000,,2013-01-13 09:42:00,
2013-01-13 02:52:00,9.0,6.0,-100.00,NNW,344,1.0,4.0,86,0.00,,,0.07,0.000000,,2013-01-13 09:52:00,
2013-01-13 03:02:00,9.0,6.0,-100.00,NNW,344,1.0,4.0,86,0.00,,,0.07,0.000000,,2013-01-13 10:02:00,
2013-01-13 03:11:00,9.0,6.0,-100.00,NNW,344,1.0,4.0,86,0.00,,,0.07,0.000000,,2013-01-13 10:11:00,
2013-01-13 03:32:00,8.0,5.0,-100.00,North,357,2.0,3.0,86,0.00,,,0.07,0.000000,,2013-01-13 10:32:00,
2013-01-13 03:42:00,8.0,5.0,-100.00,North,357,2.0,3.0,86,0.00,,,0.07,0.000000,,2013-01-13 10:42:00,
2013-01-13 03:52:00,8.0,5.0,-100.00,North,357,2.0,3.0,86,0.00,,,0.07,0.000000,,2013-01-13 10:52:00,
2013-01-13 04:02:00,8.0,5.0,-100.00,North,357,2.0,3.0,86,0.00,,,0.07,0.000000,,2013-01-13 11:02:00,
2013-01-13 04:11:00,8.0,5.0,-100.00,North,357,2.0,3.0,86,0.00,,,0.07,0.000000,,2013-01-13 11:11:00,
2013-01-13 04:42:00,6.0,2.0,-100.00,NNW,335,2.0,4.0,85,0.00,,,0.07,0.000000,,2013-01-13 11:42:00,
2013-01-13 04:52:00,6.0,2.0,-100.00,NNW,335,2.0,4.0,85,0.00,,,0.07,0.000000,,2013-01-13 11:52:00,
2013-01-13 05:02:00,6.0,2.0,-100.00,NNW,335,2.0,4.0,85,0.00,,,0.07,0.000000,,2013-01-13 12:02:00,
2013-01-13 05:12:00,6.0,2.0,-100.00,NNW,335,2.0,4.0,85,0.00,,,0.07,0.000000,,2013-01-13 12:12:00,
2013-01-13 05:33:00,3.0,-1.0,-100.00,NNW,340,3.0,4.0,82,0.00,,,0.07,0.000000,,2013-01-13 12:33:00,
2013-01-13 06:02:00,3.0,-1.0,-100.00,NNW,340,3.0,4.0,82,0.00,,,0.07,0.000000,,2013-01-13 13:02:00,
2013-01-13 06:12:00,3.0,-1.0,-100.00,NNW,340,3.0,4.0,82,0.00,,,0.07,0.000000,,2013-01-13 13:12:00,
2013-01-13 06:33:00,4.0,0.0,-100.00,NNW,342,2.0,4.0,84,0.00,,,0.07,0.000000,,2013-01-13 13:33:00,
2013-01-13 06:43:00,4.0,0.0,-100.00,NNW,342,2.0,4.0,84,0.00,,,0.07,0.000000,,2013-01-13 13:43:00,
2013-01-13 06:53:00,4.0,0.0,-100.00,NNW,342,2.0,4.0,84,0.00,,,0.07,0.000000,,2013-01-13 13:53:00,
2013-01-13 07:02:00,4.0,0.0,-100.00,NNW,342,2.0,4.0,84,0.00,,,0.07,0.000000,,2013-01-13 14:02:00,
2013-01-13 07:12:00,4.0,0.0,-100.00,NNW,342,2.0,4.0,84,0.00,,,0.07,0.000000,,2013-01-13 14:12:00,
2013-01-13 07:33:00,5.0,1.0,-100.00,NNE,15,2.0,4.0,84,0.00,,,0.07,0.000000,,2013-01-13 14:33:00,
2013-01-13 07:43:00,5.0,1.0,-100.00,NNE,15,2.0,4.0,84,0.00,,,0.07,0.000000,,2013-01-13 14:43:00,
2013-01-13 07:53:00,5.0,1.0,-100.00,NNE,15,2.0,4.0,84,0.00,,,0.07,0.000000,,2013-01-13 14:53:00,
2013-01-13 08:02:00,5.0,1.0,-100.00,NNE,15,2.0,4.0,84,0.00,,,0.07,0.000000,,2013-01-13 15:02:00,
2013-01-13 08:12:00,5.0,1.0,-100.00,NNE,15,2.0,4.0,84,0.00,,,0.07,0.000000,,2013-01-13 15:12:00,
2013-01-13 08:33:00,-1.0,-6.0,-100.00,NNW,335,2.0,3.0,80,0.00,,,0.07,0.000000,,2013-01-13 15:33:00,
2013-01-13 09:33:00,-3.0,-8.0,-100.00,NW,313,2.0,4.0,79,0.00,,,0.07,3.000000,,2013-01-13 16:33:00,
2013-01-13 10:43:00,6.0,1.0,-100.00,North,351,2.0,4.0,78,-99.99,,,0.07,21.000000,,2013-01-13 17:43:00,
2013-01-13 10:53:00,6.0,1.0,-100.00,North,351,2.0,4.0,78,-99.99,,,0.07,21.000000,,2013-01-13 17:53:00,
2013-01-13 11:02:00,6.0,1.0,-100.00,North,351,2.0,4.0,78,-99.99,,,0.07,21.000000,,2013-01-13 18:02:00,
2013-01-13 11:12:00,6.0,1.0,-100.00,North,351,2.0,4.0,78,-99.99,,,0.07,21.000000,,2013-01-13 18:12:00,
2013-01-13 11:43:00,14.0,8.0,-100.00,North,9,4.0,6.0,75,0.00,,,0.07,41.000000,,2013-01-13 18:43:00,
2013-01-13 11:53:00,14.0,8.0,-100.00,North,9,4.0,6.0,75,0.00,,,0.07,41.000000,,2013-01-13 18:53:00,
2013-01-13 12:02:00,14.0,8.0,-100.00,North,9,4.0,6.0,75,0.00,,,0.07,41.000000,,2013-01-13 19:02:00,
2013-01-13 12:12:00,14.0,8.0,-100.00,North,9,4.0,6.0,75,0.00,,,0.07,41.000000,,2013-01-13 19:12:00,
2013-01-13 12:43:00,19.0,9.0,-100.00,SSE,153,4.0,6.0,63,0.00,,,0.07,76.000000,,2013-01-13 19:43:00,
2013-01-13 12:53:00,19.0,9.0,-100.00,SSE,153,4.0,6.0,63,0.00,,,0.07,76.000000,,2013-01-13 19:53:00,
2013-01-13 13:02:00,19.0,9.0,-100.00,SSE,153,4.0,6.0,63,0.00,,,0.07,76.000000,,2013-01-13 20:02:00,
2013-01-13 13:12:00,19.0,9.0,-100.00,SSE,153,4.0,6.0,63,0.00,,,0.07,76.000000,,2013-01-13 20:12:00,
2013-01-13 13:43:00,21.0,7.0,-100.00,NW,319,3.0,7.0,55,0.00,,,0.07,92.000000,,2013-01-13 20:43:00,
2013-01-13 13:53:00,21.0,7.0,-100.00,NW,319,3.0,7.0,55,0.00,,,0.07,92.000000,,2013-01-13 20:53:00,
2013-01-13 14:12:00,21.0,7.0,-100.00,NW,319,3.0,7.0,55,0.00,,,0.07,92.000000,,2013-01-13 21:12:00,
2013-01-13 14:33:00,19.0,7.0,-100.00,NW,305,4.0,9.0,59,0.00,,,0.03,44.000000,,2013-01-13 21:33:00,
2013-01-13 14:43:00,19.0,7.0,-100.00,NW,305,4.0,9.0,59,0.00,,,0.03,44.000000,,2013-01-13 21:43:00,
2013-01-13 14:53:00,19.0,7.0,-100.00,NW,305,4.0,9.0,59,0.00,,,0.03,44.000000,,2013-01-13 21:53:00,
2013-01-13 15:02:00,19.0,7.0,-100.00,NW,305,4.0,9.0,59,0.00,,,0.03,44.000000,,2013-01-13 22:02:00,
2013-01-13 15:12:00,19.0,7.0,-100.00,NW,305,4.0,9.0,59,0.00,,,0.03,44.000000,,2013-01-13 22:12:00,
2013-01-13 16:43:00,17.0,8.0,-100.00,NNW,329,2.0,6.0,67,-99.99,,,-99.99,11.000000,,2013-01-13 23:43:00,
2013-01-13 16:53:00,17.0,8.0,-100.00,NNW,329,2.0,6.0,67,-99.99,,,-99.99,11.000000,,2013-01-13 23:53:00,
2013-01-13 17:02:00,17.0,8.0,-100.00,NNW,329,2.0,6.0,67,-99.99,,,-99.99,11.000000,,2013-01-14 00:02:00,
2013-01-13 17:12:00,17.0,8.0,-100.00,NNW,329,2.0,6.0,67,-99.99,,,-99.99,11.000000,,2013-01-14 00:12:00,
2013-01-13 17:43:00,15.0,8.0,-100.00,NW,320,2.0,4.0,73,0.00,,,0.00,2.000000,,2013-01-14 00:43:00,
2013-01-13 17:53:00,15.0,8.0,-100.00,NW,320,2.0,4.0,73,0.00,,,0.00,2.000000,,2013-01-14 00:53:00,
2013-01-13 18:02:00,15.0,8.0,-100.00,NW,320,2.0,4.0,73,0.00,,,0.00,2.000000,,2013-01-14 01:02:00,
2013-01-13 18:12:00,15.0,8.0,-100.00,NW,320,2.0,4.0,73,0.00,,,0.00,2.000000,,2013-01-14 01:12:00,
2013-01-13 18:42:00,14.0,10.0,-100.00,East,91,1.0,2.0,83,0.00,,,0.00,0.000000,,2013-01-14 01:42:00,
2013-01-13 18:52:00,14.0,10.0,-100.00,East,91,1.0,2.0,83,0.00,,,0.00,0.000000,,2013-01-14 01:52:00,
2013-01-13 19:02:00,14.0,10.0,-100.00,East,91,1.0,2.0,83,0.00,,,0.00,0.000000,,2013-01-14 02:02:00,
2013-01-13 19:12:00,14.0,10.0,-100.00,East,91,1.0,2.0,83,0.00,,,0.00,0.000000,,2013-01-14 02:12:00,
2013-01-13 19:33:00,13.0,9.0,-100.00,ENE,70,1.0,3.0,85,0.00,,,0.00,0.000000,,2013-01-14 02:33:00,
2013-01-13 19:43:00,13.0,9.0,-100.00,ENE,70,1.0,3.0,85,0.00,,,0.00,0.000000,,2013-01-14 02:43:00,
2013-01-13 19:53:00,13.0,9.0,-100.00,ENE,70,1.0,3.0,85,0.00,,,0.00,0.000000,,2013-01-14 02:53:00,
2013-01-13 20:02:00,13.0,9.0,-100.00,ENE,70,1.0,3.0,85,0.00,,,0.00,0.000000,,2013-01-14 03:02:00,
2013-01-13 20:12:00,13.0,9.0,-100.00,ENE,70,1.0,3.0,85,0.00,,,0.00,0.000000,,2013-01-14 03:12:00,
2013-01-13 20:33:00,13.0,9.0,-100.00,ESE,123,1.0,5.0,83,0.00,,,0.00,0.000000,,2013-01-14 03:33:00,
2013-01-13 20:43:00,13.0,9.0,-100.00,ESE,123,1.0,5.0,83,0.00,,,0.00,0.000000,,2013-01-14 03:43:00,
2013-01-13 20:53:00,13.0,9.0,-100.00,ESE,123,1.0,5.0,83,0.00,,,0.00,0.000000,,2013-01-14 03:53:00,
2013-01-13 21:02:00,13.0,9.0,-100.00,ESE,123,1.0,5.0,83,0.00,,,0.00,0.000000,,2013-01-14 04:02:00,
2013-01-13 21:12:00,13.0,9.0,-100.00,ESE,123,1.0,5.0,83,0.00,,,0.00,0.000000,,2013-01-14 04:12:00,
2013-01-13 21:32:00,12.0,9.0,-100.00,SSW,192,1.0,2.0,86,0.00,,,0.00,0.000000,,2013-01-14 04:32:00,
2013-01-13 21:42:00,12.0,9.0,-100.00,SSW,192,1.0,2.0,86,0.00,,,0.00,0.000000,,2013-01-14 04:42:00,
2013-01-13 21:53:00,12.0,9.0,-100.00,SSW,192,1.0,2.0,86,0.00,,,0.00,0.000000,,2013-01-14 04:53:00,
2013-01-13 22:03:00,12.0,9.0,-100.00,SSW,192,1.0,2.0,86,0.00,,,0.00,0.000000,,2013-01-14 05:03:00,
2013-01-13 22:12:00,12.0,9.0,-100.00,SSW,192,1.0,2.0,86,0.00,,,0.00,0.000000,,2013-01-14 05:12:00,
2013-01-13 22:33:00,12.0,9.0,-100.00,East,90,0.0,2.0,88,0.00,,,0.00,0.000000,,2013-01-14 05:33:00,
2013-01-13 22:43:00,12.0,9.0,-100.00,East,90,0.0,2.0,88,0.00,,,0.00,0.000000,,2013-01-14 05:43:00,
2013-01-13 22:53:00,12.0,9.0,-100.00,East,90,0.0,2.0,88,0.00,,,0.00,0.000000,,2013-01-14 05:53:00,
2013-01-13 23:02:00,12.0,9.0,-100.00,East,90,0.0,2.0,88,0.00,,,0.00,0.000000,,2013-01-14 06:02:00,
2013-01-13 23:11:00,12.0,9.0,-100.00,East,90,0.0,2.0,88,0.00,,,0.00,0.000000,,2013-01-14 06:11:00,
2013-01-13 23:33:00,12.0,9.0,-100.00,ENE,66,1.0,4.0,88,0.00,,,0.00,0.000000,,2013-01-14 06:33:00,
2013-01-13 23:43:00,12.0,9.0,-100.00,ENE,66,1.0,4.0,88,0.00,,,0.00,0.000000,,2013-01-14 06:43:00,
2013-01-13 23:53:00,12.0,9.0,-100.00,ENE,66,1.0,4.0,88,0.00,,,0.00,0.000000,,2013-01-14 06:53:00,